Voltar ao catálogo

TITAN 3C TRANSTAGE R/B

AtivoHEO
NORAD 3956·ROCKET BODY·🇺🇸 United States

Lançado May 23, 1969 de Cape Canaveral Space Force Station

Loading…

Próximas Passagens (próximas 24 horas)

TLE

AtualizadoSource: Space-Track

Época: Sep 15, 2026, 09:32 UTC

1  3956U 69046F   26258.39774962 -.00000818  00000-0  00000+0 0  9995
2  3956  17.6297  36.6357 8005447 272.9210   1.5715  0.46198671 21518

Acompanhe TITAN 3C TRANSTAGE R/B em tempo real com AllMySat

Download on the App Store